This is the latest recevied weather packets stored in our database for station/object KK4KTV-13. If no packets are shown the sender has not sent any weather packets the latest 10 day(s).
| Time | Temp. | Humidity | Pressure | Rain* | Wind** | Luminosity | Snow |
|---|---|---|---|---|---|---|---|
| 1777702091 | 4.44° C | 92% | 1015.6 hPa | 0 mm | - | 0 W/m² | - |
| 1777701787 | 5° C | 92% | 1015.6 hPa | 0 mm | - | 0 W/m² | - |
| 1777701485 | 5° C | 92% | 1015.7 hPa | 0 mm | - | 0 W/m² | - |
| 1777701182 | 5° C | 93% | 1015.6 hPa | 0 mm | - | 0 W/m² | - |
| 1777700881 | 4.44° C | 92% | 1015.7 hPa | 0 mm | - | 0 W/m² | - |
| 1777700579 | 4.44° C | 88% | 1015.7 hPa | 0 mm | - | 0 W/m² | - |
| 1777700276 | 5° C | 87% | 1016 hPa | 0 mm | - | 0 W/m² | - |
| 1777699973 | 5.56° C | 86% | 1016 hPa | 0 mm | - | 0 W/m² | - |
| 1777699671 | 6.11° C | 86% | 1015.9 hPa | 0 mm | - | 0 W/m² | - |
| 1777699369 | 6.11° C | 86% | 1016 hPa | 0 mm | - | 0 W/m² | - |
| 1777699066 | 6.11° C | 86% | 1015.9 hPa | 0 mm | - | 0 W/m² | - |
| 1777698765 | 6.67° C | 84% | 1015.8 hPa | 0 mm | - | 0 W/m² | - |
| 1777698461 | 6.67° C | 84% | 1016 hPa | 0 mm | - | 0 W/m² | - |
| 1777698156 | 6.67° C | 84% | 1016 hPa | 0 mm | - | 0 W/m² | - |
| 1777697854 | 6.67° C | 84% | 1016.1 hPa | 0 mm | - | 0 W/m² | - |
| 1777697551 | 6.67° C | 83% | 1015.7 hPa | 0 mm | - | 0 W/m² | - |
| 1777697248 | 6.67° C | 83% | 1015.9 hPa | 0 mm | - | 0 W/m² | - |
| 1777696944 | 6.67° C | 84% | 1015.8 hPa | 0 mm | - | 0 W/m² | - |
| 1777696641 | 6.67° C | 83% | 1015.9 hPa | 0 mm | - | 0 W/m² | - |
| 1777696339 | 7.78° C | 80% | 1016.1 hPa | 0 mm | - | 0 W/m² | - |
| 1777696038 | 7.78° C | 79% | 1015.9 hPa | 0 mm | - | 0 W/m² | - |
| 1777695736 | 7.22° C | 80% | 1015.8 hPa | 0 mm | - | 0 W/m² | - |
| 1777695433 | 7.22° C | 81% | 1016.2 hPa | 0 mm | - | 0 W/m² | - |
| 1777695130 | 7.22° C | 82% | 1016.1 hPa | 0 mm | - | 0 W/m² | - |
| 1777694827 | 7.22° C | 82% | 1016.2 hPa | 0 mm | - | 0 W/m² | - |
* Rain latest hour (hover to see other rain measurements)
** Current wind speed in m/s (hover to see current wind gust speed)